Starlink 30163

operational
NORAD ID: 57309 Int'l Des: 2023-096 Owner: SPXS Country: US Constellation: starlink
LEOCIRCULAR

About Starlink 30163

Description loading...

Live Position

Loading 3D Globe...

Upcoming Passes

Altitude History

Altitude vs Time

uPlot chart will show altitude changes over time

Two-Line Element Set

1 57309U 23096V 25353.77347971 .02044137 88077-5 11412-2 0 9994
2 57309 42.9682 212.1939 0020358 256.6631 103.1983 16.17853706135672
Epoch: Dec 19, 2025 • Age: 6 hours

Current Status

Altitude 229.8 km
Velocity 7.77 km/s
Sub-Earth Point 29.02°N, 110.4°W
Launch Date Jul 10, 2023
Age 2.4 years
Type internet

Technical Details

Classification Payload
Mass 730.00 kg
Dry Mass 700.00 kg
Total Mass 730.00 kg
Length 0.30 m
Diameter 4.10 m
Span 29.00 m
Shape Box + pan
Manufacturer SPXS
Bus Type Starlink V2M
Phase Status In Orbit
Owner/State SPXS/US

Large Constellations

Loading constellations...